| time (UTC) | temp F | wind direction | speed MPH | gust MPH | rain 1hr in | rain 24hr in | rain mn in | humidity % | barometer mb |
| 20260504205547 | 41 | 0.0 | 0.0 | 0.00 | 0.00 | 0.00 | 975.5 | ||
| 20260504204547 | 41 | 0.0 | 0.0 | 0.00 | 0.00 | 0.00 | 975.5 | ||
| 20260504203547 | 41 | 0.0 | 0.0 | 0.00 | 0.00 | 0.00 | 975.7 | ||
| 20260504202547 | 41 | 0.0 | 0.0 | 0.00 | 0.00 | 0.00 | 975.8 | ||
| 20260504201546 | 42 | 0.0 | 0.0 | 0.00 | 0.00 | 0.00 | 975.9 | ||
| 20260504200546 | 42 | 0.0 | 0.0 | 0.00 | 0.00 | 0.00 | 975.9 | ||
| 20260504195546 | 42 | 0.0 | 0.0 | 0.00 | 0.00 | 0.00 | 976.0 | ||
| 20260504194546 | 42 | 0.0 | 0.0 | 0.00 | 0.00 | 0.00 | 976.1 | ||
| 20260504193546 | 42 | 0.0 | 0.0 | 0.00 | 0.00 | 0.00 | 976.2 | ||
| 20260504192545 | 43 | 0.0 | 0.0 | 0.00 | 0.00 | 0.00 | 976.3 | ||
| 20260504191545 | 43 | 0.0 | 0.0 | 0.00 | 0.00 | 0.00 | 976.5 | ||
| 20260504190545 | 43 | 0.0 | 0.0 | 0.00 | 0.00 | 0.00 | 976.6 | ||
| 20260504185545 | 43 | 0.0 | 0.0 | 0.00 | 0.00 | 0.00 | 976.6 | ||
| 20260504184544 | 44 | 0.0 | 0.0 | 0.00 | 0.00 | 0.00 | 976.8 | ||
| 20260504183544 | 44 | 0.0 | 0.0 | 0.00 | 0.00 | 0.00 | 976.9 | ||
| 20260504182544 | 45 | 0.0 | 0.0 | 0.00 | 0.00 | 0.00 | 976.9 | ||
| 20260504181544 | 45 | 0.0 | 0.0 | 0.00 | 0.00 | 0.00 | 977.1 | ||
| 20260504180543 | 46 | 0.0 | 0.0 | 0.00 | 0.00 | 0.00 | 977.2 | ||
| 20260504175543 | 47 | 0.0 | 0.0 | 0.00 | 0.00 | 0.00 | 977.4 | ||
| 20260504174543 | 47 | 0.0 | 0.0 | 0.00 | 0.00 | 0.00 | 977.6 | ||
| 20260504173543 | 48 | 0.0 | 0.0 | 0.00 | 0.00 | 0.00 | 977.7 | ||
| 20260504172543 | 51 | 0.0 | 0.0 | 0.00 | 0.00 | 0.00 | 977.9 | ||
| 20260504171542 | 49 | 0.0 | 0.0 | 0.00 | 0.00 | 0.00 | 978.0 | ||
| 20260504170542 | 50 | 0.0 | 0.0 | 0.00 | 0.00 | 0.00 | 978.2 | ||
| 20260504150539 | 57 | 0.0 | 0.0 | 0.00 | 0.00 | 0.00 | 979.5 | ||
| 20260504140538 | 66 | 0.0 | 0.0 | 0.00 | 0.00 | 0.00 | 980.1 | ||
| 20260504130537 | 55 | 0.0 | 0.0 | 0.00 | 0.00 | 0.00 | 980.4 | ||
| 20260504110534 | 51 | 0.0 | 0.0 | 0.00 | 0.00 | 0.00 | 981.4 | ||
| 20260504100533 | 50 | 0.0 | 0.0 | 0.00 | 0.00 | 0.00 | 981.6 | ||
| 20260504081530 | 44 | 0.0 | 0.0 | 0.00 | 0.00 | 0.00 | 981.4 | ||
| 20260504080530 | 44 | 0.0 | 0.0 | 0.00 | 0.00 | 0.00 | 981.5 | ||
| 20260504050526 | 37 | 0.0 | 0.0 | 0.00 | 0.00 | 0.00 | 981.8 | ||
| 20260504045526 | 36 | 0.0 | 0.0 | 0.00 | 0.00 | 0.00 | 981.8 | ||
| 20260504044526 | 36 | 0.0 | 0.0 | 0.00 | 0.00 | 0.00 | 981.7 | ||
| 20260504043526 | 36 | 0.0 | 0.0 | 0.00 | 0.00 | 0.00 | 981.6 | ||
| 20260504042526 | 35 | 0.0 | 0.0 | 0.00 | 0.00 | 0.00 | 981.4 | ||
| 20260504041525 | 35 | 0.0 | 0.0 | 0.00 | 0.00 | 0.00 | 981.5 | ||
| 20260504040525 | 34 | 0.0 | 0.0 | 0.00 | 0.00 | 0.00 | 981.4 | ||
| 20260504035525 | 33 | 0.0 | 0.0 | 0.00 | 0.00 | 0.00 | 981.4 | ||
| 20260504034525 | 33 | 0.0 | 0.0 | 0.00 | 0.00 | 0.00 | 981.4 | ||
| 20260504033525 | 32 | 0.0 | 0.0 | 0.00 | 0.00 | 0.00 | 981.3 | ||
| 20260504032524 | 32 | 0.0 | 0.0 | 0.00 | 0.00 | 0.00 | 981.3 | ||
| 20260504031524 | 31 | 0.0 | 0.0 | 0.00 | 0.00 | 0.00 | 981.4 | ||
| 20260504030524 | 31 | 0.0 | 0.0 | 0.00 | 0.00 | 0.00 | 981.3 | ||
| 20260504025524 | 30 | 0.0 | 0.0 | 0.00 | 0.00 | 0.00 | 981.3 | ||
| 20260504024523 | 30 | 0.0 | 0.0 | 0.00 | 0.00 | 0.00 | 981.4 | ||
| 20260504023523 | 30 | 0.0 | 0.0 | 0.00 | 0.00 | 0.00 | 981.3 | ||
| 20260504022523 | 30 | 0.0 | 0.0 | 0.00 | 0.00 | 0.00 | 981.4 | ||
| 20260504021523 | 30 | 0.0 | 0.0 | 0.00 | 0.00 | 0.00 | 981.4 | ||
| 20260504020523 | 30 | 0.0 | 0.0 | 0.00 | 0.00 | 0.00 | 981.4 | ||
| 20260504015522 | 30 | 0.0 | 0.0 | 0.00 | 0.00 | 0.00 | 981.3 | ||
| 20260504014522 | 30 | 0.0 | 0.0 | 0.00 | 0.00 | 0.00 | 981.4 | ||
| 20260504013522 | 30 | 0.0 | 0.0 | 0.00 | 0.00 | 0.00 | 981.4 | ||
| 20260504012522 | 30 | 0.0 | 0.0 | 0.00 | 0.00 | 0.00 | 981.6 | ||
| 20260504011521 | 30 | 0.0 | 0.0 | 0.00 | 0.00 | 0.00 | 981.5 | ||
| 20260504010521 | 30 | 0.0 | 0.0 | 0.00 | 0.00 | 0.00 | 981.5 | ||
| 20260504005521 | 30 | 0.0 | 0.0 | 0.00 | 0.00 | 0.00 | 981.4 | ||
| 20260504004521 | 30 | 0.0 | 0.0 | 0.00 | 0.00 | 0.00 | 981.3 | ||
| 20260504003521 | 30 | 0.0 | 0.0 | 0.00 | 0.00 | 0.00 | 981.3 | ||
| 20260504002520 | 30 | 0.0 | 0.0 | 0.00 | 0.00 | 0.00 | 981.2 | ||
| 20260504001520 | 31 | 0.0 | 0.0 | 0.00 | 0.00 | 0.00 | 981.3 | ||
| 20260504000520 | 31 | 0.0 | 0.0 | 0.00 | 0.00 | 0.00 | 981.3 | ||
| 20260503235520 | 31 | 0.0 | 0.0 | 0.00 | 0.00 | 0.00 | 981.2 | ||
| 20260503234519 | 31 | 0.0 | 0.0 | 0.00 | 0.00 | 0.00 | 981.3 | ||
| 20260503233519 | 31 | 0.0 | 0.0 | 0.00 | 0.00 | 0.00 | 981.2 | ||
| 20260503232519 | 31 | 0.0 | 0.0 | 0.00 | 0.00 | 0.00 | 981.2 | ||
| 20260503231519 | 31 | 0.0 | 0.0 | 0.00 | 0.00 | 0.00 | 981.2 | ||
| 20260503230519 | 31 | 0.0 | 0.0 | 0.00 | 0.00 | 0.00 | 981.3 | ||
| 20260503225518 | 31 | 0.0 | 0.0 | 0.00 | 0.00 | 0.00 | 981.2 | ||
| 20260503224518 | 32 | 0.0 | 0.0 | 0.00 | 0.00 | 0.00 | 981.4 | ||
| 20260503223518 | 32 | 0.0 | 0.0 | 0.00 | 0.00 | 0.00 | 981.5 | ||
| 20260503222518 | 33 | 0.0 | 0.0 | 0.00 | 0.00 | 0.00 | 981.5 | ||
| 20260503221517 | 33 | 0.0 | 0.0 | 0.00 | 0.00 | 0.00 | 981.6 | ||
| 20260503220517 | 33 | 0.0 | 0.0 | 0.00 | 0.00 | 0.00 | 981.5 | ||
| 20260503215517 | 33 | 0.0 | 0.0 | 0.00 | 0.00 | 0.00 | 981.4 | ||
| 20260503214517 | 34 | 0.0 | 0.0 | 0.00 | 0.00 | 0.00 | 981.5 | ||
| 20260503213517 | 34 | 0.0 | 0.0 | 0.00 | 0.00 | 0.00 | 981.4 | ||
| 20260503212516 | 34 | 0.0 | 0.0 | 0.00 | 0.00 | 0.00 | 981.4 | ||
| 20260503211516 | 35 | 0.0 | 0.0 | 0.00 | 0.00 | 0.00 | 981.5 | ||
| 20260503210516 | 35 | 0.0 | 0.0 | 0.00 | 0.00 | 0.00 | 981.5 |